Regional Weather Roundup
Issued by NWS

Home | Current Version | Previous Version | Text Only | Print | Product List | Glossary Off
Versions: 1 2 3 4 5 6 7 8 9 10 11 12 13 14 15 16 17 18 19 20 21 22 23 24 25 26 27 28 29 30 31 32 33 34 35 36 37 38 39 40 41 42 43 44 45 46 47 48 49 50

000
ASUS45 KTFX 280019
RWRMT
MONTANA HOURLY WEATHER ROUNDUP
NATIONAL WEATHER SERVICE GREAT FALLS MT
519 PM MST FRI FEB 27 2015

NOTE: "FAIR" INDICATES FEW OR NO CLOUDS BELOW 12000 FEET WITH NO
SIGNIFICANT WEATHER AND/OR OBSTRUCTIONS TO VISIBILITY.

* THESE STATIONS ARE NOT UNDER NWS QUALITY CONTROL. THEY DO NOT
   REPORT WEATHER SUCH AS PRECIPITATION OR FOG.

MTZ001>007-043-280100-
WEST OF THE DIVIDE
CITY           SKY/WX    TMP DP  RH WIND       PRES   REMARKS
KALISPELL      CLEAR     34   9  35 N21G28    29.91R WCI  22
MISSOULA       CLOUDY    37  10  33 E14       29.84R WCI  28
BUTTE          CLOUDY    25  10  53 S17       29.79R WCI  12
MULLAN PASS    PTCLDY    25  12  58 CALM      29.72R
* ANACONDA     MOCLDY    23  12  63 N16G23     N/A   WCI  10
* ESSEX        N/A       22   6  50 E9G19      N/A   WCI  12
* EUREKA APT   PTCLDY    36   7  30 NE10      29.94S WCI  29
* HAMILTON APT MOCLDY    37  12  36 N14       29.76F WCI  28
* LIBBY APT    PTCLDY    37  10  33 E7        29.89S WCI  32
* LINCOLN      N/A       19   7  59 NE14G25    N/A   WCI   5
* LOOKOUT PASS N/A       31  14  49 NW6G11     N/A   WCI  25
* POLSON       N/A       34  10  37 N3         N/A
* RONAN APT    MOCLDY    37  18  46 NE7        N/A   WCI  32
* SEELEY LAKE  N/A       31  11  43 SE4G12     N/A
* THOMP F APT  PTCLDY    29  18  63 NE4G9      N/A
$$

MTZ008-052>055-280100-
SOUTHWEST MONTANA
CITY           SKY/WX    TMP DP  RH WIND       PRES   REMARKS
BOZEMAN        CLOUDY    28  10  47 CALM      29.86S
DILLON         CLOUDY    27   9  46 NE23G30   29.74S WCI  13
* W YELLOWSTON PTCLDY    28   4  36 N4         N/A
* THREE FORKS  PTCLDY    28  12  51 N/A        N/A
* BOULDER HILL N/A       14   5  67 N18G24     N/A   WCI  -3
* MONIDA PASS  N/A       27  10  49 N10        N/A   WCI  18
* RAYNOLDS PAS N/A       16 -31  10 VRB11G16    N/A   WCI   3
* WHITEHALL    N/A       29  12  49 E8G15      N/A   WCI  21
* WISE RIVER   N/A       29   8  41 SE11G17    N/A   WCI  19
$$

MTZ009>010-012-014-046-048-049-054-280100-
EAST SLOPES AND CENTRAL MONTANA
CITY           SKY/WX    TMP DP  RH WIND       PRES   REMARKS
CUT BANK       LGT SNOW  18  10  71 N17       30.04R WCI   3
GREAT FALLS    LGT SNOW  18  12  77 N10       30.03R WCI   6
HELENA         PTCLDY    21  10  62 N/A       29.98R
MALMSTROM AFB  LGT SNOW  19  14  81 N8        30.06R WCI   9
* CONRAD       PTCLDY    19  12  74 NW13       N/A   WCI   6
* DEARBORN     N/A       20  13  74 N/A        N/A
* EAST GLACIER N/A       13   5  70 E13        N/A   WCI  -2
* MONARCH      N/A       10   5  80 NW4        N/A
* PENDROY      N/A       15  10  80 VRB15G20    N/A
* ROGERS PASS  N/A       11   7  84 S5G12      N/A   WCI   2
* SWEET GRASS  N/A       15  11  84 N14G19     N/A
* WHITE SULPH  N/A       15   7  70 NW13G22    N/A   WCI   1
$$

MTZ011-013-016-021-035-040-045-047-050-051-280100-
NORTH CENTRAL MONTANA
CITY           SKY/WX    TMP DP  RH WIND       PRES   REMARKS
HAVRE          CLEAR     19   9  65 NW14      30.07R WCI   5
LEWISTOWN      LGT SNOW  16   9  74 NW12      29.98R WCI   3
* N BAR RANCH  MOCLDY    16   5  62 NW17G23   29.91S
* CHINOOK      PTCLDY    21   1  41 N5        30.07R WCI  14
* FORT BENTON  PTCLDY    21  12  68 W9        30.09R WCI  11
* CHESTER      N/A       18   7  62 NE12G17    N/A   WCI   5
* DENTON       N/A       18   8  65 NW11G17    N/A   WCI   6
* GEYSER       N/A       14   8  77 W18G24     N/A   WCI  -3
* JUDITH GAP   N/A       13   9  84 N22G28     N/A   WCI  -6
* LOMA         N/A       20  13  74 VRB12      N/A   WCI   8
$$

MTZ017>020-022>027-061-062-280100-
NORTHEAST MONTANA
CITY           SKY/WX    TMP DP  RH WIND       PRES   REMARKS
GLASGOW        PTCLDY    19   5  54 NW8       30.03R WCI   9
GLENDIVE       FAIR      27   9  46 SW7       30.01R WCI  19
JORDAN         CLEAR     19   1  45 NW18      30.01R WCI   4
SIDNEY         CLOUDY    27   9  46 S7        30.06S WCI  19
WOLF POINT     PTCLDY    27   7  42 W5        30.03S WCI  21
* BEAVER HILL  N/A       23   8  52 SE14G19    N/A   WCI  10
* CIRCLE       N/A       26  11  53 SW8        N/A   WCI  18
* LINDSAY DVD  N/A       24   5  44 SW8        N/A   WCI  15
* NAVAJO       N/A       21   4  48 W4         N/A
* POPLAR APT   PTCLDY    25   7  46 CALM      30.04S
* SACO         N/A       19   3  49 NW8        N/A   WCI   9
$$

MTZ028>042-056>058-280100-
SOUTHCENTRAL AND SOUTHEAST MONTANA
CITY           SKY/WX    TMP DP  RH WIND       PRES   REMARKS
BAKER          CLEAR     23   9  55 S7        29.99S WCI  15
BILLINGS       MOCLDY    28  10  47 NE13      29.92R WCI  17
LIVINGSTON     CLOUDY    27  12  53 E13       29.86R WCI  16
MILES CITY     CLEAR     25  10  53 SW6       29.99S WCI  18
* BIG TIMBER A PTCLDY    23  12  63 N12       29.90R WCI  11
* FORSYTH APT  PTCLDY    25   9  50 W7        29.99S WCI  17
* LAUREL APT   PTCLDY    28   7  41 N/A        N/A
* ROUNDUP APT  PTCLDY    21   1  41 N7         N/A   WCI  12
* ALZADA       N/A       21  10  62 E6         N/A   WCI  13
* HYSHAM       N/A       22   6  50 NE2        N/A
* LAME DEER    N/A       18  11  74 N/A        N/A
* REED POINT   N/A       28  12  51 E1         N/A
$$

REGIONAL REPORTS...DAKOTAS
CITY           SKY/WX    TMP DP  RH WIND       PRES   REMARKS
WILLISTON      MOCLDY    25   5  42 S6        30.04F WCI  18
DICKINSON      PTCLDY    23   7  50 S12       30.01F WCI  11
BEACH          CLEAR     23   7  50 S8        30.01S WCI  14
CROSBY         CLEAR     12   5  73 SE6       30.08F WCI   2
TIOGA          CLEAR     14   5  67 E8        30.09S WCI   3
WATFORD CITY   CLEAR     23   7  50 S12       30.03S WCI  11
BISMARCK       PTCLDY    18   5  57 SE14      30.20F WCI   4
GRAND FORKS    PTCLDY    12   1  61 S9        30.35F
FARGO          PTCLDY    14   0  53 S12       30.39F
BUFFALO SD     PTCLDY    25  10  53 SE16      29.92S WCI  12
RAPID CITY     CLOUDY    21  12  68 S15       30.01F WCI   7
$$

REGIONAL REPORTS...WYOMING/IDAHO/WASHINGTON
CITY           SKY/WX    TMP DP  RH WIND       PRES   REMARKS
GILLETTE       PTCLDY    23  10  57 S7        29.87R WCI  15
SHERIDAN       PTCLDY    16   7  67 NW5       29.90S WCI   8
CODY           PTCLDY    21  10  62 N7        29.84R WCI  12
YELLOWSTONE LA PTCLDY    19  10  68 CALM      29.69S
SALMON         CLOUDY    37  19  48 CALM      29.71S
MULLAN PASS    PTCLDY    25  12  58 CALM      29.72S
SAND POINT     MOCLDY    41  21  45 N15G25    29.85R
SPOKANE        MOCLDY    48  21  34 NE14G22   29.76S
$$

REGIONAL REPORTS...ALBERTA
CITY           SKY/WX    TMP DP  RH WIND       PRES   REMARKS
CALGARY        N/A       18  10  71 N9        30.09R WCI   7
LETHBRIDGE     LGT SNOW  19  14  81 NW14G21   30.11R WCI   5
MEDICINE HAT   LGT SNOW  18  12  77 NW12      30.13R VSB 2 1/2 WCI   5
EDMONTON       LGT SNOW  16   7  67 NW5       30.19R WCI   8
WATERTON GATE  N/A       16  10  77 E5         N/A   WCI   8
CARDSTON       N/A       16  12  84 NW7        N/A   WCI   6
MILK RIVER     N/A       18  14  84 N15        N/A   WCI   4
$$

REGIONAL REPORTS...SASKATCHEWAN
CITY           SKY/WX    TMP DP  RH WIND       PRES   REMARKS
SWIFT CURRENT  CLEAR      9   1  70 NW7       30.04S WCI  -2
MOOSE JAW      MOCLDY     3  -4  72 NW8       30.10S WCI -10
REGINA         CLOUDY     3  -2  79 SE5       30.10S WCI  -7
VAL MARIE      N/A       18   1  47 N13        N/A   WCI   5
ASSINIBOIA     N/A        7   0  73 NW7        N/A   WCI  -5
CORONACH       N/A       18   5  57 NW9        N/A   WCI   7

$$




USA.gov is the U.S. government's official web portal to all federal, state and local government web resources and services.